Location: Devore Heights
(34.2372°N, 117.4156°W)
Time: 01:35:36
(UTC+00:00)

Altair - Pass Details

Date: 18 September 2024
Orbit: 1501 x 1682 km, 47.2° (Epoch: 09 October)

Event Time Altitude Azimuth Distance (km) Brightness Sun altitude
Exits shadow 08:29:32 25° 64° (ENE) 2,921 9.1 -52.6°
Drops below altitude 10° 08:32:59 10° 58° (ENE) 3,935 9.9 -52.3°
Sets 08:36:13 0° 56° (NE) 4,933 10.6 -52.1°
